[Iaude] MPEC T112: 2023 TO3 [a=2.29,e=0.62,i=2.2,H=27.7]

mpec at marsden.cfa.harvard.edu mpec at marsden.cfa.harvard.edu
Sun Oct 8 19:41:42 EDT 2023


M.P.E.C. 2023-T112                              Issued 2023 October 8, 23:40 UT

     The Minor Planet Electronic Circulars contain information on unusual
         minor planets, routine data on comets and natural satellites,
         and occasional editorial announcements.  They are published
    on behalf of Division F of the International Astronomical Union by the
          Minor Planet Center, Smithsonian Astrophysical Observatory,
                          Cambridge, MA 02138, U.S.A.
			  
             Prepared using the Tamkin Foundation Computer Network

                              MPC at CFA.HARVARD.EDU
            URL https://www.minorplanetcenter.net/    ISSN 1523-6714

                                    2023 TO3                                    


Observations:
     K23T03O* C2023 10 08.39952701 31 44.740+00 43 45.71         19.36wXET112F52
     K23T03O  C2023 10 08.41106501 31 54.398+00 50 07.99         19.26wXET112F52
     K23T03O  C2023 10 08.42259601 32 03.889+00 56 25.34         19.45wXET112F52
     K23T03O  C2023 10 08.56345301 33 52.983+02 07 53.76         19.26GVET112F51
     K23T03O  C2023 10 08.56409401 33 53.478+02 08 12.29         19.18GVET112F51
     K23T03O KC2023 10 08.86648901 38 33.257+04 11 02.08         19.2 GVET112J95
     K23T03O KB2023 10 08.86758801 38 36.03 +04 12 06.3          19.6 GVET112I93
     K23T03O KB2023 10 08.87092301 38 38.07 +04 13 20.6          20.0 GVET112I93
     K23T03O KB2023 10 08.87426401 38 40.09 +04 14 34.3          19.7 GVET112I93
     K23T03O KC2023 10 08.87648301 38 38.69 +04 15 29.4          19.8 GVET112104
     K23T03O KC2023 10 08.88053101 38 41.08 +04 16 58.7          19.5 GVET112104
     K23T03O KC2023 10 08.88458101 38 43.42 +04 18 27.2          19.6 GVET112104
     K23T03O KC2023 10 08.88949601 38 47.520+04 19 28.13         19.8 GVET112J95
     K23T03O KC2023 10 08.89204501 38 46.51 +04 21 03.9          19.4 GVET112L01
     K23T03O KC2023 10 08.89340401 38 47.28 +04 21 33.0          19.5 GVET112L01
     K23T03O KC2023 10 08.89501001 38 48.21 +04 22 07.6          19.7 GVET112L01
     K23T03O KC2023 10 08.90093301 38 54.413+04 23 36.13         19.9 GVET112J95

Observer details:
104 San Marcello Pistoiese.  Observers P. Bacci, M. Maestripieri.  Measurers
    P. Bacci, L. Tesi, G. Fagioli.  0.60-m F4 Reflector + CCD.
F51 Pan-STARRS 1, Haleakala.  Observers J. Bulger, K. Chambers, T. Lowe, P.
    Minguez, A. Schultz, I. Smith.  Measurers S. Chastel, J. Fairlamb, M.
    Huber, Y. Ramanjooloo, R. Wainscoat, R. Weryk.  1.8-m Ritchey-Chretien +
    CCD.
F52 Pan-STARRS 2, Haleakala.  Observers J. Bulger, T. Lowe, P. Minguez, A.
    Schultz, I. Smith.  Measurers K. Chambers, T. de Boer, J. Bulger, J.
    Fairlamb, H. Gao, M. Huber, C.-C. Lin, T. Lowe, E. Magnier, P. Minguez, Y.
    Ramanjooloo, A. Schultz, I. Smith, R. Wainscoat, R. Weryk.  1.8-m Ritchey-
    Chretien + CCD.
I93 St Pardon de Conques.  Observer F. Losse.  0.40-m f/3.7 reflector + CMO.
J95 Great Shefford.  Observer P. Birtwhistle.  0.41-m f/6.3 Schmidt-Cassegrain
    + CCD.
L01 Visnjan Observatory, Tican.  Observer K. Korlevic.  1.0-m f/2.9 reflector
    + CCD.

Orbital elements:
2023 TO3                                                 Earth MOID = 0.0038 AU
Epoch 2023 Sept. 13.0 TT = JDT 2460200.5                Bell                    
M   3.30542              (2000.0)            P               Q                  
n   0.28469657     Peri.  305.05180     +0.79873959     +0.60156100             
a   2.2884840      Node    17.97573     -0.53881945     +0.72389077             
e   0.6210669      Incl.    2.19284     -0.26774740     +0.33779658             
P   3.46           H   27.78          G   0.15           U   8                  
Residuals in seconds of arc
231008 F52  0.2-  0.1-    231008 I93  0.3+  0.1+    231008 J95  0.0   0.3-
231008 F52  0.0   0.3+    231008 I93  0.1+  0.5+    231008 L01  0.4-  0.8+
231008 F52  0.1+  0.2+    231008 I93  0.3-  0.3+    231008 L01  0.5-  0.4+
231008 F51  0.0   0.3-    231008 104  0.0   0.0     231008 L01  0.3-  0.2+
231008 F51  0.1+  0.0     231008 104  0.3+  0.4+    231008 J95  0.2+  0.5-
231008 J95  0.1+  0.1-    231008 104  0.1-  0.2+

Ephemeris:
2023 TO3                 a,e,i = 2.29, 0.62, 2                   q = 0.8672
Date    TT    R. A. (2000) Decl.     Delta      r    Elong.  Phase     V
2023 09 08    13 56 31.9 -18 05 44   0.2329  0.8725    48.9   119.5    29.1
...
2023 09 23    14 10 32.3 -20 49 25   0.1084  0.9216    38.7   137.1    29.3
...
2023 10 01    14 21 15.5 -24 45 35   0.04439 0.9655    35.2   143.2    28.2
...
2023 10 07    00 18 41.4 -32 29 38   0.0063031.0047   141.7    38.1    18.3
2023 10 08    01 22 48.3 -03 45 50   0.01246 1.0116   167.9    11.9    19.0
2023 10 09    01 39 45.8 +05 02 55   0.01990 1.0187   169.0    10.8    20.0
...
2023 10 15    01 58 50.9 +14 49 55   0.06715 1.0632   168.0    11.3    22.7
...
2023 10 23    02 01 57.6 +16 37 37   0.1328  1.1272   173.5     5.7    24.1
...
2023 11 07    02 03 25.9 +17 11 27   0.2685  1.2563   169.7     8.1    26.0

M. P. C. Staff               (C) Copyright 2023 MPC           M.P.E.C. 2023-T112





More information about the Iaude mailing list